Satellite: CO-55
Catalog number: 27844
Epoch time:      09296.59722135
Element set:     695
Inclination:      098.7138 deg
RA of node:       303.9611 deg
Eccentricity:    0.0010425
Arg of perigee:   130.1304 deg
Mean anomaly:     230.0784 deg
Mean motion:   14.20662064 rev/day
Decay rate:        4.8e-07 rev/day^2
Epoch rev:           32749
Checksum:              301

Satellite: CO-57
Catalog number: 27848
Epoch time:      09297.57893075
Element set:     647
Inclination:      098.7178 deg
RA of node:       303.9948 deg
Eccentricity:    0.0010348
Arg of perigee:   131.6885 deg
Mean anomaly:     228.5178 deg
Mean motion:   14.20460947 rev/day
Decay rate:        9.0e-08 rev/day^2
Epoch rev:           32759
Checksum:              370

Satellite: AO-51
Catalog number: 28375
Epoch time:      09296.94023113
Element set:    0517
Inclination:      098.0543 deg
RA of node:       299.0596 deg
Eccentricity:    0.0084812
Arg of perigee:   093.8778 deg
Mean anomaly:     267.2110 deg
Mean motion:   14.40655855 rev/day
Decay rate:        1.1e-07 rev/day^2
Epoch rev:           27949
Checksum:              333

Satellite: CO-56
Catalog number: 28941
Epoch time:      09297.68475575
Element set:     556
Inclination:      098.0955 deg
RA of node:       138.9518 deg
Eccentricity:    0.0011688
Arg of perigee:   319.8691 deg
Mean anomaly:     040.7485 deg
Mean motion:   16.46998778 rev/day
Decay rate:  1.4491492e-01 rev/day^2
Epoch rev:           20790
Checksum:              407

Satellite: GENESAT1
Catalog number: 29655
Epoch time:      09296.85376955
Element set:    0844
Inclination:      040.0176 deg
RA of node:       095.5052 deg
Eccentricity:    0.0005151
Arg of perigee:   008.0083 deg
Mean anomaly:     352.0824 deg
Mean motion:   15.68621820 rev/day
Decay rate:     1.9650e-04 rev/day^2
Epoch rev:           16266
Checksum:              305

Satellite: CP3
Catalog number: 31129
Epoch time:      09297.57371927
Element set:     283
Inclination:      097.9738 deg
RA of node:       344.3554 deg
Eccentricity:    0.0101385
Arg of perigee:   244.2093 deg
Mean anomaly:     114.8636 deg
Mean motion:   14.52171994 rev/day
Decay rate:       1.30e-06 rev/day^2
Epoch rev:           13366
Checksum:              317

Satellite: CO-65
Catalog number: 32785
Epoch time:      09296.18057247
Element set:    0514
Inclination:      097.9314 deg
RA of node:       358.9905 deg
Eccentricity:    0.0014496
Arg of perigee:   339.7035 deg
Mean anomaly:     020.3599 deg
Mean motion:   14.81529986 rev/day
Decay rate:        5.4e-07 rev/day^2
Epoch rev:           08039
Checksum:              353

Satellite: KKS-1
Catalog number: 33493
Epoch time:      09297.70970045
Element set:     876
Inclination:      098.0680 deg
RA of node:       050.5660 deg
Eccentricity:    0.0019967
Arg of perigee:   179.4831 deg
Mean anomaly:     180.6409 deg
Mean motion:   14.80753861 rev/day
Decay rate:       3.44e-06 rev/day^2
Epoch rev:            4063
Checksum:              326

Satellite: SOHLA-1
Catalog number: 33496
Epoch time:      09297.83313823
Element set:     841
Inclination:      098.0475 deg
RA of node:       045.1820 deg
Eccentricity:    0.0005547
Arg of perigee:   225.2436 deg
Mean anomaly:     134.8312 deg
Mean motion:   14.69451211 rev/day
Decay rate:        3.7e-07 rev/day^2
Epoch rev:            4031
Checksum:              280

/EX
SB KEPS @ AMSAT  $ORB09297.W
Orbital Elements  09297.WEATHER

HR AMSAT ORBITAL ELEMENTS FOR WEATHER SATELLITES
FROM WA5QGD FORT WORTH,TX October 24, 2009
Send Subscribe/unsubscribe to KEPS at 
http://www.amsat.org/mailman/listinfo/keps
BID: ORB09297.W
TO ALL RADIO AMATEURS BT

Satellite: NOAA-10
Catalog number: 16969
Epoch time:      09297.48724277
Element set:     807
Inclination:      098.6815 deg
RA of node:       323.3768 deg
Eccentricity:    0.0012241
Arg of perigee:   176.2460 deg
Mean anomaly:     183.8820 deg
Mean motion:   14.27396643 rev/day
Decay rate:       -9.3e-07 rev/day^2
Epoch rev:           20195
Checksum:              336

Satellite: NOAA-11
Catalog number: 19531
Epoch time:      09297.33459616
Element set:     824
Inclination:      098.7806 deg
RA of node:       025.2716 deg
Eccentricity:    0.0012264
Arg of perigee:   099.1015 deg
Mean anomaly:     261.1533 deg
Mean motion:   14.14904215 rev/day
Decay rate:      -2.13e-06 rev/day^2
Epoch rev:            8778
Checksum:              299

Satellite: NOAA-12
Catalog number: 21263
Epoch time:      09297.74104283
Element set:     309
Inclination:      098.7731 deg
RA of node:       305.8755 deg
Eccentricity:    0.0013077
Arg of perigee:   127.0481 deg
Mean anomaly:     233.1895 deg
Mean motion:   14.25597801 rev/day
Decay rate:        1.3e-07 rev/day^2
Epoch rev:           95885
Checksum:              317

Satellite: MET-3/5
Catalog number: 21655
Epoch time:      09296.91677393
Element set:    0678
Inclination:      082.5527 deg
RA of node:       115.5731 deg
Eccentricity:    0.0012731
Arg of perigee:   216.6819 deg
Mean anomaly:     143.3433 deg
Mean motion:   13.17021368 rev/day
Decay rate:        5.1e-07 rev/day^2
Epoch rev:           87457
Checksum:              319

